Weather in Borodianka

Ukraine / Kyiv Region     50˚38′44″N   29˚55′14″E
temp.,
°C
wind,
m/s
gust,
m/s
humid.,
%
clouds,
%
prec.,
mm/h
press.,
hPa
HPBL,
m
28 november, sat
sat2823:00+1˚wsw3894100 0.0 1018250
02:00+1˚wsw259686 0.0 1018133
05:00+2˚sw2696100 0.0 1017241
08:00wsw229370 0.0 101727
11:00+3˚sw128395 0.0 1018358
14:00+3˚w128294 0.1 1018390
17:00+2˚ssw1196100 0.3 1018117
20:00+1˚wsw119698 0.3 101824
29 november, sun
sun2923:00wsw119567 0.0 101821
02:00−1˚wsw129667 0.0 101921
05:00sw239431 0.0 1018190
08:00+1˚ssw238266 0.0 1019483
11:00+1˚ssw3476100 0.0 1020594
14:00+2˚ssw2475100 0.0 1020699
17:00+2˚s2477100 0.0 1021189
20:00+1˚sse2477100 0.1 1022129
30 november, mon
mon3023:00ssw2282100 0.0 102265
02:00−1˚wsw129293 0.0 102323
05:00−2˚w12930 0.0 102322
08:00−2˚wnw11920 0.0 102522
11:00+1˚wnw127033 0.0 1025359
14:00+2˚nw236654 0.0 1025646
17:00−1˚nw228324 0.0 102622
20:00−2˚nw238627 0.0 102775
1 december, tue
tue123:00−2˚nnw24901 0.0 1028129
02:00−3˚nnw23928 0.0 1028111
05:00−3˚n229056 0.0 102857
08:00−3˚nne228858 0.0 102955
11:00−1˚nne35690 0.0 1029497
14:00nne35660 0.0 1028569
17:00−3˚nne35830 0.0 1028113
20:00−3˚nne36877 0.0 1029166
2 december, wed
wed223:00−2˚nne359688 0.1 1028170
02:00−1˚nne249694 0.2 1028151
05:00nne2598100 0.1 1027198
08:00ne2399100 0.3 1027120
11:00+1˚e2498100 0.2 1028198
14:00+1˚ese2498100 0.4 1027247
17:00se2499100 0.1 1027210
20:00ese2496100 0.1 1027142